Miscellaneous Local Product
Issued by NWS North Platte, NE

Home | Current Version | Previous Version | Text Only | Print | Product List | Glossary On
Versions: 1 2 3 4 5 6 7 8 9 10 11 12 13 14 15 16 17 18 19 20 21 22 23 24 25 26 27 28 29 30 31 32 33 34 35 36 37 38 39 40 41 42 43 44 45 46 47 48 49 50
000
AXUS43 KLBF 020710
MISLBF


WESTERN AND NORTH CENTRAL NEBRASKA HOURLY WEATHER ROUNDUP
NATIONAL WEATHER SERVICE NORTH PLATTE NE
200 AM CDT WED SEP 02 2015

NOTE: "FAIR" INDICATES FEW OR NO CLOUDS BELOW 12,000 FEET WITH NO
SIGNIFICANT WEATHER AND/OR OBSTRUCTIONS TO VISIBILITY.

NOTE: STATIONS NOT REPORTING VARIABLES SUCH AS SKY/WEATHER OR
PRESSURE ARE PROVIDED BY THE NEBRASKA DEPARTMENT OF
ROADS...RAWS...AND APRS NETWORKS...AND ARE NOT UNDER
NATIONAL WEATHER SERVICE QUALITY CONTROL.

...OBSERVATIONS IN AND NEAR THE EASTERN PANHANDLE OF NEBRASKA...

CITY           SKY/WX    TMP DP  RH WIND       PRES   REMARKS
PINE RIDGE     CLEAR     65  46  50 SW5       29.89S
CHADRON        PTCLDY    55  46  71 SW3       29.89S
ALLIANCE       CLEAR     61  48  62 S10       29.93S
SIDNEY         CLEAR     68  42  38 SW12      30.00F
CRESCENT LAKE    N/A     66  51  58 S6          N/A
BIG SPRINGS      N/A     70  57  63 W3          N/A
$$

...OBSERVATIONS IN NORTH CENTRAL NEBRASKA...

CITY           SKY/WX    TMP DP  RH WIND       PRES   REMARKS
VALENTINE      CLEAR     69  61  75 SW7       29.85F
THEDFORD       CLEAR     68  63  82 S9        29.91S
O`NEILL        CLEAR     69  66  90 S7        29.87S
ORD            CLEAR     64  62  93 CALM      29.86F
BROKEN BOW     CLEAR     64  61  90 CALM      29.90S
SPRINGVIEW       N/A     63  61  93 CALM        N/A
SARGENT          N/A     67  63  86 CALM        N/A
CHAMBERS         N/A     69  65  89 S3          N/A
EWING            N/A     69  62  79 CALM        N/A
$$

...OBSERVATIONS IN SOUTHWEST NEBRASKA AND FAR NORTHEAST COLORADO...

CITY           SKY/WX    TMP DP  RH WIND       PRES   REMARKS
WRAY           CLOUDY    69  59  70 W8        29.98S
HOLYOKE        FAIR      66  59  77 SW6       29.98S
IMPERIAL       CLEAR     67  57  70 CALM      29.94F
OGALLALA       CLEAR     70  57  64 W8        29.94S
NORTH PLATTE   CLEAR     65  60  84 E3        29.91S
MCCOOK         CLEAR     70  58  65 CALM      29.91S
LEXINGTON      CLEAR     70  64  81 CALM      29.90S
PAXTON           N/A     65  59  82 CALM        N/A
BRADY            N/A     65  61  87 CALM        N/A
CALLAWAY         N/A     63  62  96 S6          N/A
$$

...OBSERVATIONS IN CENTRAL LINCOLN COUNTY AREA...

CITY           SKY/WX    TMP DP  RH WIND       PRES   REMARKS
N.P. AIRPORT   CLEAR     65  60  84 E3        29.91S
N.P. DOWNTOWN    N/A     68  62  82 CALM        N/A
N.P. SOUTHEAST   N/A     74  61  63 CALM        N/A
N.P. HILLCREST   N/A     73  62  68 CALM        N/A
$$

...SOME OBSERVATIONS FROM AROUND THE REGION...

CITY           SKY/WX    TMP DP  RH WIND       PRES   REMARKS
DENVER         MOCLDY    69  45  41 S12       30.10R
LARAMIE        MOCLDY    54  42  64 S15       30.21S
CHEYENNE       PTCLDY    59  40  49 SW8       30.13R
SCOTTSBLUFF    CLEAR     59  50  72 W3        29.95R
RAPID CITY     CLEAR     61  52  72 NW8       29.87S
PIERRE         CLEAR     68  67  96 SE6       29.76F
WINNER           N/A     75  62  64 S12       29.80F
SIOUX FALLS    CLEAR     73  69  87 S10       29.85S
OMAHA          PTCLDY    76  68  76 SE15      29.90F
GRAND ISLAND   CLEAR     75  64  68 S14       29.89F
KANSAS CITY    PTCLDY    73  65  75 S12       29.99F
WICHITA        MOCLDY    78  64  61 S15       29.98F
HAYS           CLEAR     79  55  44 S13       29.94S
LIBERAL        PTCLDY    75  54  46 S13       30.02S
GOODLAND       PTCLDY    70  57  63 SW3       29.98F
$$



USA.gov is the U.S. government's official web portal to all federal, state and local government web resources and services.